Powrót do katalogu

DELTA 1 DEB

AktywnySSO
NORAD 12285·DEBRIS·🇺🇸 United States

Wystrzelony Mar 5, 1978 z Vandenberg Space Force Base

Loading…

Następne Przeloty (najbliższe 24 godziny)

TLE

ŚwieżeSource: Space-Track

Epoka: Sep 14, 2026, 07:09 UTC

1 12285U 78026ED  26257.29859653  .00000396  00000-0  23528-3 0  9991
2 12285  99.0669 270.0889 0051683  84.1109 276.5950 14.12588347176268

Śledź DELTA 1 DEB w czasie rzeczywistym z AllMySat

Download on the App Store